Total_Precipitation_Accumulation
0.14 0.34 0.51 0.44 0.36 0.31 0.25 0.22 0.18 0.12 0.13 0.11 0.10 0.11 0.13 0.16 0.17 0.15 0.12 0.12 0.11 0.10 0.09 0.09 0.09 0.14 0.20 0.29 0.38 0.54 0.88 1.30 1.48 1.39 1.37 1.46 1.58 1.58 1.49 1.47 1.44 1.49 1.49 1.48
0.09 0.18 0.19 0.15 0.18 0.22 0.24 0.26 0.22 0.16 0.11 0.09 0.07 0.07 0.08 0.10 0.12 0.13 0.12 0.13 0.13 0.11 0.08 0.06 0.08 0.11 0.17 0.32 0.47 0.59 0.85 1.29 1.49 1.60 1.72 1.94 2.14 2.06 1.94 1.92 1.87 1.94 1.94 2.09
0.05 0.06 0.05 0.09 0.17 0.25 0.28 0.29 0.25 0.20 0.12 0.09 0.07 0.06 0.07 0.09 0.09 0.09 0.11 0.14 0.14 0.12 0.11 0.11 0.10 0.14 0.18 0.27 0.39 0.53 0.71 1.00 1.32 1.58 1.87 2.19 2.43 2.42 2.31 2.14 2.12 2.16 2.21 2.35
0.04 0.03 0.04 0.07 0.10 0.14 0.21 0.15 0.11 0.09 0.10 0.09 0.07 0.10 0.10 0.12 0.13 0.12 0.13 0.13 0.15 0.15 0.14 0.16 0.16 0.16 0.18 0.23 0.30 0.43 0.61 0.87 1.11 1.35 1.78 2.23 2.55 2.67 2.59 2.47 2.42 2.37 2.39 2.42
0.01 0.01 0.02 0.04 0.06 0.09 0.11 0.07 0.06 0.07 0.08 0.07 0.06 0.09 0.12 0.13 0.16 0.16 0.16 0.16 0.16 0.16 0.17 0.20 0.20 0.22 0.24 0.22 0.26 0.38 0.54 0.78 1.02 1.24 1.61 2.04 2.34 2.57 2.74 2.55 2.42 2.43 2.45 2.45
0.01 0.00 0.00 0.01 0.02 0.04 0.06 0.06 0.05 0.05 0.07 0.07 0.05 0.11 0.19 0.18 0.17 0.15 0.14 0.15 0.17 0.19 0.24 0.27 0.35 0.39 0.39 0.33 0.36 0.45 0.54 0.67 0.84 0.99 1.22 1.47 1.82 2.12 2.47 2.44 2.37 2.48 2.45 2.31
0.00 0.00 0.00 0.00 0.01 0.02 0.03 0.08 0.12 0.12 0.13 0.11 0.08 0.18 0.29 0.25 0.19 0.18 0.18 0.18 0.20 0.22 0.26 0.34 0.47 0.51 0.53 0.46 0.43 0.45 0.55 0.60 0.66 0.77 0.90 1.06 1.33 1.53 1.90 2.21 2.19 2.10 2.13 2.12
0.00 0.00 0.00 0.00 0.01 0.04 0.04 0.09 0.17 0.19 0.19 0.19 0.19 0.34 0.42 0.31 0.23 0.21 0.19 0.20 0.23 0.27 0.34 0.50 0.65 0.68 0.68 0.60 0.53 0.52 0.60 0.63 0.65 0.70 0.72 0.82 0.98 1.11 1.28 1.50 1.61 1.64 1.68 1.84
0.01 0.01 0.00 0.00 0.01 0.03 0.07 0.10 0.13 0.20 0.18 0.20 0.30 0.46 0.43 0.27 0.25 0.27 0.27 0.28 0.37 0.47 0.55 0.67 0.81 0.83 0.75 0.69 0.61 0.60 0.64 0.73 0.73 0.72 0.73 0.83 0.88 0.92 1.03 1.06 1.21 1.39 1.42 1.44
0.04 0.02 0.01 0.01 0.02 0.03 0.06 0.10 0.17 0.28 0.33 0.31 0.33 0.45 0.47 0.37 0.37 0.37 0.42 0.44 0.55 0.66 0.74 0.82 0.95 0.97 0.83 0.71 0.61 0.59 0.61 0.73 0.92 1.03 0.99 0.93 0.99 1.06 1.28 1.31 1.15 1.14 1.30 1.33
0.17 0.13 0.04 0.04 0.06 0.10 0.14 0.21 0.27 0.35 0.38 0.49 0.58 0.63 0.58 0.57 0.58 0.59 0.62 0.65 0.74 0.86 0.87 0.84 0.91 0.98 0.87 0.68 0.61 0.56 0.56 0.67 0.82 0.87 0.93 0.91 0.95 1.05 1.34 1.55 1.48 1.30 1.28 1.28
0.22 0.28 0.15 0.09 0.13 0.17 0.23 0.34 0.50 0.69 0.66 0.62 0.75 0.79 0.64 0.58 0.62 0.64 0.64 0.63 0.67 0.79 0.80 0.81 0.83 0.80 0.70 0.56 0.49 0.47 0.48 0.59 0.71 0.70 0.76 0.83 0.83 0.92 1.05 1.17 1.19 1.12 1.03 0.98
0.33 0.46 0.38 0.26 0.32 0.32 0.41 0.45 0.51 0.63 0.71 0.72 0.80 0.83 0.61 0.53 0.49 0.52 0.55 0.58 0.60 0.60 0.60 0.59 0.60 0.57 0.55 0.53 0.50 0.45 0.47 0.54 0.60 0.63 0.68 0.75 0.77 0.79 0.81 0.82 0.76 0.79 0.81 0.85
0.33 0.42 0.47 0.47 0.53 0.59 0.59 0.50 0.45 0.60 0.78 0.73 0.74 0.73 0.60 0.53 0.49 0.52 0.53 0.54 0.57 0.50 0.44 0.44 0.46 0.47 0.49 0.49 0.49 0.46 0.43 0.50 0.60 0.74 0.80 0.85 0.86 0.85 0.84 0.82 0.78 0.77 0.79 0.85
0.22 0.25 0.26 0.25 0.27 0.39 0.44 0.38 0.38 0.45 0.51 0.66 0.65 0.64 0.52 0.49 0.53 0.56 0.54 0.49 0.45 0.39 0.34 0.35 0.35 0.38 0.37 0.38 0.40 0.40 0.38 0.44 0.51 0.65 0.77 0.82 0.85 0.86 0.82 0.75 0.72 0.76 0.74 0.72
0.15 0.19 0.18 0.16 0.18 0.25 0.32 0.34 0.35 0.35 0.40 0.50 0.57 0.55 0.43 0.39 0.38 0.38 0.36 0.31 0.29 0.29 0.26 0.24 0.25 0.26 0.26 0.24 0.24 0.26 0.33 0.41 0.47 0.54 0.64 0.80 0.87 0.80 0.75 0.67 0.66 0.69 0.67 0.64
0.13 0.23 0.30 0.25 0.21 0.23 0.48 0.51 0.51 0.52 0.46 0.45 0.40 0.32 0.21 0.20 0.23 0.26 0.26 0.26 0.29 0.25 0.20 0.18 0.19 0.20 0.21 0.22 0.25 0.28 0.34 0.44 0.44 0.48 0.60 0.80 0.81 0.70 0.65 0.70 0.74 0.71 0.68 0.68
0.10 0.22 0.32 0.27 0.29 0.57 0.82 0.61 0.58 0.52 0.31 0.17 0.13 0.12 0.12 0.17 0.17 0.15 0.16 0.19 0.22 0.19 0.15 0.13 0.13 0.13 0.14 0.17 0.21 0.24 0.28 0.32 0.35 0.41 0.50 0.65 0.67 0.66 0.69 0.69 0.67 0.62 0.58 0.56
0.12 0.23 0.33 0.29 0.33 0.60 0.64 0.41 0.33 0.33 0.21 0.07 0.06 0.08 0.10 0.12 0.11 0.09 0.09 0.10 0.11 0.11 0.07 0.06 0.06 0.05 0.05 0.06 0.07 0.11 0.13 0.16 0.21 0.28 0.36 0.46 0.49 0.54 0.56 0.55 0.56 0.52 0.48 0.50
0.25 0.30 0.43 0.44 0.54 0.58 0.31 0.16 0.15 0.22 0.26 0.06 0.03 0.04 0.04 0.06 0.09 0.06 0.04 0.05 0.05 0.05 0.04 0.03 0.02 0.01 0.01 0.01 0.02 0.04 0.06 0.10 0.14 0.20 0.27 0.34 0.37 0.41 0.43 0.48 0.51 0.51 0.48 0.46
0.22 0.30 0.38 0.46 0.65 0.54 0.21 0.11 0.11 0.21 0.27 0.08 0.03 0.02 0.02 0.02 0.04 0.02 0.03 0.04 0.04 0.03 0.03 0.01 0.01 0.00 0.00 0.01 0.01 0.02 0.05 0.07 0.08 0.11 0.16 0.23 0.30 0.37 0.45 0.51 0.52 0.55 0.52 0.47
0.24 0.26 0.28 0.38 0.54 0.49 0.20 0.15 0.18 0.17 0.08 0.03 0.02 0.01 0.01 0.01 0.01 0.01 0.02 0.02 0.03 0.03 0.02 0.01 0.01 0.00 0.00 0.01 0.01 0.01 0.02 0.03 0.04 0.06 0.11 0.18 0.26 0.33 0.42 0.51 0.54 0.54 0.54 0.53
0.27 0.30 0.32 0.43 0.57 0.38 0.23 0.20 0.19 0.12 0.06 0.02 0.01 0.01 0.00 0.00 0.00 0.00 0.01 0.02 0.02 0.03 0.02 0.01 0.01 0.01 0.00 0.01 0.01 0.00 0.00 0.00 0.01 0.02 0.06 0.11 0.15 0.19 0.25 0.32 0.41 0.47 0.51 0.53
0.15 0.17 0.23 0.32 0.32 0.20 0.18 0.16 0.12 0.07 0.04 0.02 0.01 0.00 0.00 0.00 0.00 0.00 0.01 0.01 0.02 0.02 0.01 0.01 0.01 0.01 0.01 0.00 0.00 0.00 0.00 0.00 0.00 0.01 0.03 0.05 0.06 0.07 0.10 0.20 0.28 0.35 0.42 0.47
0.10 0.13 0.18 0.25 0.25 0.15 0.10 0.10 0.07 0.04 0.02 0.01 0.01 0.00 0.00 0.00 0.00 0.00 0.00 0.00 0.01 0.01 0.01 0.01 0.01 0.01 0.00 0.00 0.00 0.00 0.01 0.01 0.01 0.01 0.01 0.02 0.04 0.06 0.08 0.14 0.22 0.27 0.34 0.37
0.07 0.11 0.17 0.24 0.23 0.17 0.08 0.07 0.05 0.03 0.02 0.01 0.01 0.00 0.00 0.00 0.00 0.00 0.00 0.00 0.01 0.01 0.01 0.01 0.01 0.01 0.00 0.00 0.00 0.01 0.03 0.02 0.04 0.06 0.03 0.02 0.03 0.06 0.08 0.11 0.13 0.13 0.16 0.16